[[{"header":{"parameterUnit":"m.s-1","parameterCategory":2,"la1":30.2991,"la2":30.254,"lo1":-89.0895,"lo2":-89.0444,"dy":0.0017,"dx":0.0017,"nx":28,"ny":28,"refTime":"2024-05-09T03:00:00:Z","depth":"0","parameterNumber":2,"parameterNumberName":"U-component_of_CURRENTS"},"data":[0,0,0,0,0,0,0,0,0,0,0,0,0,0,0,0,0,0,0,0,0,0,0,0,0,0,0,0,0,0,0,0,0,0,0,0,0,0,0,0,0,0,0,0,0,0,0,0,0,0,0,0,0,0,0,0,0,0,-0.2578,-0.2578,0,-0.2598,-0.2598,-0.2598,-0.2563,-0.2562,-0.2561,-0.2561,-0.2514,-0.2514,-0.2514,0,0,0,0,0,0,0,0,0,0,0,0,0,-0.2525,-0.2526,-0.2578,-0.2578,-0.2579,-0.2598,-0.2598,-0.2598,-0.2563,-0.2562,-0.2561,-0.256,-0.2515,-0.2514,-0.2514,0,0,0,0,0,0,0,0,0,0,0,0,0,-0.2544,-0.2526,-0.2578,-0.2566,-0.2565,-0.2598,-0.2598,-0.2598,-0.2564,-0.2562,-0.2561,-0.256,-0.2515,-0.2514,-0.2514,-0.2539,0,0,-0.2512,-0.2512,0,0,0,0,0,0,0,0,-0.2543,-0.2546,-0.2567,-0.2567,-0.2566,-0.2579,-0.2563,-0.2576,-0.2564,-0.2562,-0.256,-0.2559,-0.2533,-0.2531,-0.2535,-0.2537,-0.2535,-0.2512,-0.2512,-0.2512,-0.2511,0,0,0,0,0,0,0,-0.2542,-0.2545,-0.2583,-0.2568,-0.2567,-0.2565,-0.2566,-0.2565,-0.2552,-0.2562,-0.256,-0.2567,-0.2531,-0.2536,-0.2533,-0.2534,-0.2512,-0.2512,-0.2511,-0.2511,-0.2522,-0.2523,0,0,0,0,0,0,-0.2546,-0.2544,-0.2583,-0.2584,-0.2554,-0.2567,-0.2568,-0.2574,-0.2553,-0.255,-0.2568,-0.2565,-0.2537,-0.2534,-0.2532,-0.2537,-0.2512,-0.2511,-0.2511,-0.2521,-0.2522,-0.2523,0,0,0,0,0,0,-0.2544,-0.2549,-0.2582,-0.2566,-0.2571,-0.257,-0.2577,-0.2575,-0.2573,-0.2559,-0.2553,-0.2567,-0.2536,-0.2532,-0.2529,-0.2535,-0.2511,-0.251,-0.2521,-0.2522,-0.2523,-0.2562,0,0,0,0,0,0,-0.2543,-0.2548,-0.2549,-0.2567,-0.2572,-0.2598,-0.2579,-0.2577,-0.2581,-0.2577,-0.2556,-0.2551,-0.2534,-0.253,-0.2528,-0.2534,-0.251,-0.252,-0.2521,-0.2522,-0.256,-0.2564,-0.2568,0,0,0,0,0,-0.2541,-0.2548,-0.2549,-0.2554,-0.2575,-0.2598,-0.2601,-0.2593,-0.2582,-0.2585,-0.2572,-0.2551,-0.2535,-0.253,-0.2528,-0.2534,-0.2519,-0.2521,-0.2522,-0.2558,-0.2563,-0.2568,0,0,0,0,0,0,-0.2523,-0.2547,-0.2547,-0.256,-0.2577,-0.2593,-0.2594,-0.2597,-0.2591,-0.2582,-0.2564,-0.2558,-0.2558,-0.2544,-0.2539,-0.2541,-0.2523,-0.2524,-0.2551,-0.2555,-0.2559,-0.2565,-0.251,0,0,0,0,0,-0.2523,-0.2529,-0.2558,-0.2563,-0.2574,-0.2586,-0.2593,-0.2595,-0.2597,-0.2593,-0.2582,-0.2569,-0.2566,-0.2558,-0.2553,-0.2557,-0.2534,-0.2558,-0.2562,-0.2565,-0.2569,-0.2554,-0.2557,-0.2527,-0.2527,-0.2527,0,0,-0.2515,-0.2529,-0.2531,-0.2559,-0.2568,-0.2594,-0.2585,-0.2599,-0.2615,-0.2589,-0.2595,-0.2585,-0.2572,-0.2575,-0.2573,-0.256,-0.2558,-0.2567,-0.257,-0.2571,-0.2556,-0.2559,-0.2562,-0.2528,-0.2528,-0.2528,0,0,-0.2511,-0.2519,-0.2529,-0.255,-0.2574,-0.2591,-0.2598,-0.262,-0.2619,-0.2633,-0.2618,-0.2615,-0.2607,-0.2602,-0.2598,-0.2623,-0.2584,-0.2616,-0.2635,-0.2621,-0.2624,-0.2625,-0.2584,-0.2582,-0.2612,-0.2613,-0.2613,0,-0.2501,-0.2518,-0.2534,-0.2558,-0.2574,-0.2593,-0.2616,-0.2631,-0.2646,-0.2648,-0.2634,-0.2631,-0.2622,-0.2628,-0.2638,-0.2632,-0.2606,-0.2618,-0.2626,-0.2628,-0.2629,-0.2586,-0.2583,-0.2615,-0.2614,-0.2614,-0.2614,0,-0.251,-0.2528,-0.2536,-0.2572,-0.2596,-0.2615,-0.265,-0.2666,-0.2669,-0.2678,-0.268,-0.267,-0.2664,-0.2664,-0.266,-0.2667,-0.2639,-0.2637,-0.2614,-0.2634,-0.2588,-0.2584,-0.2618,-0.2617,-0.2616,-0.2616,0,0,-0.2469,-0.2531,-0.253,-0.2553,-0.2604,-0.2624,-0.2661,-0.2693,-0.2707,-0.2712,-0.2719,-0.2722,-0.271,-0.2706,-0.2695,-0.2687,-0.2675,-0.2668,-0.2666,-0.2626,-0.262,-0.2523,-0.2509,-0.2672,-0.2672,-0.2672,-0.2578,0,-0.2466,-0.2507,-0.2542,-0.2582,-0.2609,-0.2648,-0.2684,-0.2715,-0.2728,-0.2742,-0.2734,-0.2735,-0.2728,-0.2719,-0.2715,-0.2697,-0.2669,-0.2699,-0.2608,-0.2605,-0.2515,-0.2503,-0.238,-0.2279,-0.2574,-0.2574,-0.2573,0,-0.2451,-0.2486,-0.2523,-0.2591,-0.2606,-0.2636,-0.2683,-0.2717,-0.2751,-0.2759,-0.276,-0.2754,-0.2755,-0.2738,-0.27,-0.2718,-0.267,-0.2644,-0.2639,-0.2534,-0.2501,-0.231,-0.2261,-0.2249,-0.2567,-0.2568,-0.2568,0,-0.2394,-0.2465,-0.249,-0.2512,-0.2598,-0.2618,-0.266,-0.2709,-0.2727,-0.276,-0.2761,-0.2767,-0.2749,-0.2722,-0.2672,-0.2686,-0.261,-0.262,-0.2476,-0.2468,-0.2336,-0.2316,-0.2264,-0.257,-0.257,-0.257,-0.2571,0,-0.2365,-0.2381,-0.2466,-0.2479,-0.2507,-0.2586,-0.2611,-0.2653,-0.2706,-0.2714,-0.2754,-0.2737,-0.2743,-0.2702,-0.2668,-0.255,-0.2598,-0.2468,-0.2437,-0.2344,-0.2326,-0.2289,-0.2335,-0.2567,-0.2568,-0.2568,-0.2569,0,-0.2275,-0.2339,-0.2367,-0.2454,-0.2475,-0.2488,-0.2565,-0.2589,-0.2653,-0.2663,-0.267,-0.2701,-0.2637,-0.2612,-0.2552,-0.2511,-0.2386,-0.2372,-0.2248,-0.2204,-0.2062,-0.2114,-0.2046,-0.1988,-0.2202,-0.2199,-0.2197,0,-0.2226,-0.2231,-0.2307,-0.232,-0.2351,-0.2394,-0.2425,-0.2528,-0.2558,-0.2619,-0.2612,-0.2574,-0.2502,-0.2383,-0.2297,-0.2185,-0.2225,-0.2037,-0.2045,-0.2023,-0.2061,-0.2118,-0.208,-0.188,-0.1876,-0.1872,-0.1868,0,-0.211,-0.2134,-0.2155,-0.2189,-0.2222,-0.2258,-0.2317,-0.2331,-0.2447,-0.2447,-0.2422,-0.237,-0.2264,-0.2098,-0.1985,-0.1915,-0.1998,-0.1949,-0.1963,-0.183,-0.1852,-0.179,-0.1971,-0.1833,-0.1836,-0.1839,-0.1841,-0.1842,-0.1989,-0.1974,-0.2006,-0.2019,-0.2062,-0.2081,-0.2036,-0.2118,-0.2109,-0.2052,-0.2169,-0.2023,-0.1973,-0.1768,-0.1714,-0.1592,-0.1683,-0.1554,-0.1624,-0.1687,-0.1622,-0.1709,-0.1521,-0.1523,-0.1525,-0.1526,-0.1527,0,-0.1828,-0.1825,-0.1836,-0.1847,-0.182,-0.1903,-0.192,-0.1828,-0.1734,-0.1729,-0.1667,-0.1609,-0.1485,-0.1464,-0.1391,-0.1321,-0.1312,-0.1301,-0.1368,-0.1346,-0.1428,-0.1403,-0.1135,-0.1135,-0.1135,-0.1135,-0.1135,-0.1135,-0.1745,-0.1682,-0.1692,-0.1583,-0.1585,-0.1465,-0.1416,-0.1314,-0.1244,-0.108,-0.1032,-0.1027,-0.1191,-0.1381,-0.1324,-0.1247,-0.1257,-0.1189,-0.1257,-0.1342,-0.1372,-0.1401,-0.1386,-0.1119,-0.1119,-0.1093,-0.1094,-0.1094]},{"header":{"parameterUnit":"m.s-1","parameterCategory":2,"la1":30.2991,"la2":30.254,"lo1":-89.0895,"lo2":-89.0444,"dy":0.0017,"dx":0.0017,"nx":28,"ny":28,"refTime":"2024-05-09T03:00:00:Z","depth":"0","parameterNumber":3,"parameterNumberName":"V-component_of_CURRENTS"},"data":[0,0,0,0,0,0,0,0,0,0,0,0,0,0,0,0,0,0,0,0,0,0,0,0,0,0,0,0,0,0,0,0,0,0,0,0,0,0,0,0,0,0,0,0,0,0,0,0,0,0,0,0,0,0,0,0,0,0,-0.0151,-0.015,0,-0.0064,-0.0063,-0.0062,0.0004,0.0004,0.0005,0.0005,0.0142,0.0145,0.0148,0,0,0,0,0,0,0,0,0,0,0,0,0,-0.0205,-0.0205,-0.0151,-0.015,-0.0149,-0.0064,-0.0063,-0.0062,0.0004,0.0004,0.0005,0.0005,0.0141,0.0145,0.0149,0,0,0,0,0,0,0,0,0,0,0,0,0,-0.0155,-0.0205,-0.0152,-0.0107,-0.0103,-0.0065,-0.0063,-0.0061,0.0004,0.0004,0.0005,0.0006,0.014,0.0145,0.0149,0.0164,0,0,0.0164,0.0166,0,0,0,0,0,0,0,0,-0.0158,-0.0153,-0.0115,-0.011,-0.0105,-0.0041,-0.0032,0.0016,0.0003,-0.0036,0.0005,0.0006,0.0084,0.0093,0.0109,0.0171,0.0176,0.0164,0.0167,0.0169,0.0171,0,0,0,0,0,0,0,-0.0162,-0.0156,-0.0116,-0.0114,-0.0108,-0.0073,-0.0065,-0.0022,0.0021,-0.0032,-0.0027,-0.002,0.0087,0.0104,0.0113,0.0178,0.0164,0.0168,0.0171,0.0173,0.0286,0.0286,0,0,0,0,0,0,-0.0179,-0.016,-0.0118,-0.0113,-0.0132,-0.0073,-0.0064,-0.0062,0.002,0.0032,-0.0021,-0.0017,0.0096,0.0107,0.0118,0.0145,0.0169,0.0174,0.0176,0.0286,0.0286,0.0286,0,0,0,0,0,0,-0.018,-0.0176,-0.0122,-0.0135,-0.0126,-0.0073,-0.007,-0.006,-0.0043,0.0028,0.0041,-0.0014,0.0097,0.0111,0.0153,0.0151,0.0176,0.018,0.0286,0.0286,0.0286,0.0196,0,0,0,0,0,0,-0.0183,-0.0178,-0.0184,-0.0137,-0.0126,-0.0109,-0.0071,-0.0059,-0.004,-0.0035,0.0038,0.0051,0.0099,0.0145,0.0158,0.0158,0.0184,0.0286,0.0286,0.0286,0.0199,0.0193,0.0188,0,0,0,0,0,-0.0185,-0.02,-0.0185,-0.0179,-0.0136,-0.011,-0.0101,-0.006,-0.0041,-0.004,0.0011,0.0049,0.0156,0.0149,0.0163,0.0165,0.0286,0.0286,0.0286,0.0201,0.0194,0.0189,0,0,0,0,0,0,-0.0228,-0.0193,-0.0176,-0.0179,-0.0151,-0.0099,-0.0097,-0.0068,-0.0028,-0.0022,0.0047,0.0063,0.0098,0.0145,0.0135,0.02,0.0229,0.0232,0.016,0.0154,0.0149,0.0137,0.0188,0,0,0,0,0,-0.0242,-0.0242,-0.0201,-0.0206,-0.0195,-0.0148,-0.0133,-0.0106,-0.0063,-0.0045,0.0005,0.0063,0.011,0.0141,0.0186,0.022,0.0274,0.0234,0.0228,0.0223,0.0225,0.03,0.0301,0.0287,0.0287,0.0287,0,0,-0.0259,-0.0241,-0.0241,-0.0215,-0.0189,-0.0184,-0.0137,-0.0122,-0.0112,-0.0037,-0.001,0.004,0.0113,0.0149,0.017,0.0189,0.0255,0.0224,0.0219,0.0223,0.03,0.0301,0.0303,0.0288,0.0287,0.0287,0,0,-0.0301,-0.028,-0.0296,-0.0279,-0.025,-0.0217,-0.0217,-0.0171,-0.0144,-0.0114,-0.0056,-0.0007,0.0061,0.0117,0.0154,0.0149,0.0218,0.0164,0.0135,0.0207,0.0209,0.0211,0.0272,0.028,0.0169,0.0169,0.0169,0,-0.0325,-0.0337,-0.0297,-0.0309,-0.0301,-0.0238,-0.0252,-0.0215,-0.016,-0.0135,-0.0118,-0.0006,0.0049,0.011,0.0108,0.0137,0.0185,0.0148,0.0199,0.0202,0.0206,0.0269,0.0279,0.0164,0.0165,0.0165,0.0166,0,-0.0377,-0.0385,-0.0394,-0.0385,-0.037,-0.0372,-0.032,-0.0294,-0.0254,-0.0208,-0.0148,-0.0071,0.0002,0.0025,0.0065,0.012,0.0148,0.0174,0.0209,0.0201,0.0269,0.0281,0.0158,0.016,0.0161,0.0162,0,0,-0.0434,-0.0432,-0.0435,-0.0447,-0.0412,-0.0408,-0.0384,-0.034,-0.0315,-0.0253,-0.0213,-0.0131,-0.0078,-0.0032,0.0031,0.0094,0.0156,0.0138,0.0144,0.0188,0.031,0.0349,0.0367,0.0189,0.0191,0.0193,0.0342,0,-0.0487,-0.0533,-0.0507,-0.0539,-0.0558,-0.0495,-0.0481,-0.0429,-0.0362,-0.0305,-0.0207,-0.0152,-0.01,-0.0068,0.0005,0.0123,0.0186,0.0113,0.0321,0.0327,0.0355,0.0382,0.0436,0.0576,0.0355,0.0357,0.0359,0,-0.0546,-0.0569,-0.0617,-0.0622,-0.0622,-0.0623,-0.0576,-0.055,-0.0442,-0.0389,-0.0299,-0.0221,-0.0113,-0.0077,0.0123,0.0074,0.018,0.0268,0.0277,0.0356,0.039,0.0552,0.0607,0.0766,0.0378,0.0377,0.0375,0,-0.0616,-0.0642,-0.0685,-0.0688,-0.068,-0.0679,-0.0659,-0.0576,-0.0546,-0.0432,-0.0392,-0.0252,-0.0174,-0.0026,0.0157,0.0143,0.0379,0.0388,0.0522,0.0526,0.0636,0.0646,0.0864,0.052,0.0519,0.0519,0.0519,0,-0.0685,-0.0718,-0.0722,-0.0749,-0.079,-0.075,-0.0751,-0.07,-0.0615,-0.0562,-0.044,-0.0359,-0.0158,0.0001,0.0155,0.0389,0.0386,0.0529,0.0575,0.0605,0.061,0.0805,0.0856,0.0525,0.0523,0.0522,0.0521,0,-0.0756,-0.0758,-0.0811,-0.0822,-0.0828,-0.0853,-0.083,-0.0816,-0.0724,-0.0644,-0.0616,-0.0425,-0.0204,-0.0002,0.0261,0.0394,0.0711,0.0675,0.0689,0.0734,0.0989,0.1031,0.1279,0.139,0.085,0.0852,0.0853,0,-0.0797,-0.0831,-0.0876,-0.0913,-0.0921,-0.0942,-0.0954,-0.0881,-0.0843,-0.0666,-0.0627,-0.0414,-0.0212,0.0178,0.0438,0.0722,0.0826,0.091,0.0891,0.1027,0.111,0.1124,0.1201,0.1004,0.1007,0.1009,0.1011,0,-0.0869,-0.0879,-0.0922,-0.1002,-0.1036,-0.1065,-0.1056,-0.1031,-0.0906,-0.0785,-0.0573,-0.0398,-0.0032,0.0341,0.0672,0.083,0.1037,0.0963,0.1123,0.1266,0.1283,0.1404,0.0867,0.1031,0.1029,0.1028,0.1026,0.1026,-0.0909,-0.096,-0.1013,-0.1082,-0.1127,-0.1141,-0.1102,-0.1018,-0.0895,-0.0589,-0.0497,-0.01,0.026,0.0758,0.0943,0.1298,0.1233,0.1397,0.1443,0.145,0.1547,0.104,0.1237,0.1236,0.1235,0.1234,0.1234,0,-0.0957,-0.1006,-0.1087,-0.1154,-0.1196,-0.1202,-0.1132,-0.0998,-0.0757,-0.0442,-0.0148,0.0372,0.0806,0.115,0.1582,0.178,0.1819,0.1852,0.1906,0.1966,0.1554,0.1551,0.1803,0.1803,0.1803,0.1803,0.1802,0.1802,-0.0983,-0.1064,-0.1106,-0.1184,-0.1217,-0.1168,-0.1083,-0.0818,-0.0536,0.0017,0.0444,0.0722,0.1086,0.1726,0.2164,0.2203,0.239,0.2342,0.244,0.2164,0.2125,0.2088,0.21,0.2463,0.2464,0.2855,0.2859,0.2862]}],[{"header":{"parameterUnit":"m.s-1","parameterCategory":2,"la1":30.2991,"la2":30.254,"lo1":-89.0895,"lo2":-89.0444,"dy":0.0017,"dx":0.0017,"nx":28,"ny":28,"refTime":"2024-05-09T03:00:00:Z","depth":"2","parameterNumber":2,"parameterNumberName":"U-component_of_CURRENTS"},"data":[0,0,0,0,0,0,0,0,0,0,0,0,0,0,0,0,0,0,0,0,0,0,0,0,0,0,0,0,0,0,0,0,0,0,0,0,0,0,0,0,0,0,0,0,0,0,0,0,0,0,0,0,0,0,0,0,0,0,-0.2445,-0.2446,0,-0.2483,-0.2483,-0.2483,-0.2462,-0.2461,-0.246,-0.2459,-0.2435,-0.2435,-0.2436,0,0,0,0,0,0,0,0,0,0,0,0,0,-0.2356,-0.2357,-0.2445,-0.2446,-0.2447,-0.2483,-0.2483,-0.2483,-0.2462,-0.2461,-0.246,-0.2459,-0.2435,-0.2435,-0.2436,0,0,0,0,0,0,0,0,0,0,0,0,0,-0.2392,-0.2358,-0.2445,-0.2442,-0.2443,-0.2483,-0.2483,-0.2483,-0.2462,-0.2461,-0.246,-0.2458,-0.2435,-0.2435,-0.2436,-0.2461,0,0,-0.2436,-0.2436,0,0,0,0,0,0,0,0,-0.239,-0.2395,-0.2442,-0.2443,-0.2443,-0.2469,-0.2443,-0.2474,-0.2462,-0.2452,-0.2459,-0.2458,-0.2443,-0.2443,-0.245,-0.246,-0.2459,-0.2436,-0.2436,-0.2436,-0.2436,0,0,0,0,0,0,0,-0.2387,-0.2393,-0.2458,-0.2443,-0.2444,-0.2439,-0.2443,-0.2449,-0.2451,-0.2453,-0.2452,-0.2461,-0.2443,-0.245,-0.2449,-0.2459,-0.2436,-0.2436,-0.2436,-0.2437,-0.2467,-0.2467,0,0,0,0,0,0,-0.239,-0.2391,-0.2456,-0.2459,-0.2416,-0.2442,-0.2446,-0.246,-0.2452,-0.2451,-0.2462,-0.246,-0.245,-0.2449,-0.2448,-0.2464,-0.2436,-0.2437,-0.2437,-0.2466,-0.2467,-0.2468,0,0,0,0,0,0,-0.2388,-0.2395,-0.2455,-0.2427,-0.2435,-0.2445,-0.2461,-0.2461,-0.2466,-0.246,-0.2457,-0.2466,-0.2449,-0.2448,-0.2454,-0.2463,-0.2437,-0.2437,-0.2465,-0.2466,-0.2467,-0.2504,0,0,0,0,0,0,-0.2385,-0.2394,-0.2402,-0.2428,-0.2437,-0.2478,-0.2462,-0.2463,-0.2475,-0.2472,-0.2463,-0.246,-0.2448,-0.2454,-0.2454,-0.2463,-0.2437,-0.2464,-0.2466,-0.2467,-0.2502,-0.2506,-0.251,0,0,0,0,0,-0.2382,-0.2397,-0.2403,-0.2411,-0.2448,-0.2478,-0.2482,-0.2483,-0.2476,-0.2482,-0.2477,-0.246,-0.2461,-0.2455,-0.2455,-0.2464,-0.2464,-0.2465,-0.2467,-0.25,-0.2505,-0.251,0,0,0,0,0,0,-0.2359,-0.2398,-0.2404,-0.2429,-0.2453,-0.2476,-0.2482,-0.2489,-0.2492,-0.2486,-0.2474,-0.2471,-0.2481,-0.247,-0.2463,-0.2476,-0.2458,-0.246,-0.2483,-0.2488,-0.2492,-0.2498,-0.2437,0,0,0,0,0,-0.2362,-0.238,-0.2417,-0.2434,-0.2448,-0.2467,-0.2479,-0.2485,-0.2495,-0.2495,-0.2492,-0.2487,-0.249,-0.2486,-0.2488,-0.2499,-0.2478,-0.2503,-0.2507,-0.251,-0.2515,-0.2502,-0.2505,-0.2473,-0.2473,-0.2473,0,0,-0.2356,-0.238,-0.2389,-0.243,-0.2445,-0.2475,-0.247,-0.2492,-0.2512,-0.2493,-0.2509,-0.2505,-0.2498,-0.2508,-0.251,-0.2498,-0.2505,-0.2512,-0.2515,-0.2518,-0.2504,-0.2507,-0.251,-0.2474,-0.2473,-0.2473,0,0,-0.2358,-0.2378,-0.2397,-0.2423,-0.2457,-0.2476,-0.2486,-0.2516,-0.2521,-0.2544,-0.2534,-0.2537,-0.2541,-0.2539,-0.2538,-0.2566,-0.2531,-0.2562,-0.2582,-0.257,-0.2572,-0.2574,-0.2536,-0.2534,-0.2559,-0.2559,-0.2559,0,-0.2349,-0.2382,-0.2406,-0.2436,-0.2457,-0.248,-0.2508,-0.2528,-0.2554,-0.256,-0.2549,-0.256,-0.2557,-0.2568,-0.2579,-0.2576,-0.2552,-0.2564,-0.2574,-0.2576,-0.2577,-0.2538,-0.2535,-0.2561,-0.2561,-0.256,-0.256,0,-0.237,-0.2399,-0.2412,-0.2459,-0.2486,-0.251,-0.255,-0.2571,-0.258,-0.2594,-0.2606,-0.2602,-0.2603,-0.2605,-0.2604,-0.2614,-0.2587,-0.2584,-0.2561,-0.2583,-0.254,-0.2536,-0.2564,-0.2563,-0.2562,-0.2562,0,0,-0.2334,-0.2412,-0.2414,-0.2441,-0.2498,-0.2523,-0.2564,-0.2602,-0.262,-0.2634,-0.2648,-0.266,-0.265,-0.2649,-0.2642,-0.2635,-0.2626,-0.2617,-0.2615,-0.2577,-0.2576,-0.2479,-0.2465,-0.2622,-0.2622,-0.2622,-0.2535,0,-0.2337,-0.2394,-0.2434,-0.2483,-0.2514,-0.2555,-0.2593,-0.263,-0.2648,-0.2668,-0.2666,-0.2675,-0.2669,-0.2665,-0.2662,-0.2646,-0.2622,-0.2648,-0.2563,-0.256,-0.247,-0.2461,-0.2286,-0.2188,-0.2532,-0.2532,-0.2531,0,-0.2334,-0.2377,-0.2426,-0.2498,-0.2515,-0.2549,-0.2601,-0.2638,-0.2678,-0.269,-0.2696,-0.2695,-0.27,-0.2685,-0.2652,-0.2668,-0.2624,-0.26,-0.2596,-0.2492,-0.2457,-0.2226,-0.2169,-0.2525,-0.2526,-0.2526,-0.2527,0,-0.2282,-0.2363,-0.2399,-0.2425,-0.2515,-0.2539,-0.2581,-0.2633,-0.2655,-0.2695,-0.27,-0.271,-0.2697,-0.2673,-0.2627,-0.264,-0.2571,-0.2579,-0.244,-0.2432,-0.226,-0.2236,-0.2535,-0.2535,-0.2535,-0.2536,-0.2536,0,-0.2261,-0.2285,-0.2379,-0.2398,-0.2434,-0.2512,-0.2543,-0.2588,-0.2641,-0.2653,-0.2696,-0.2682,-0.2693,-0.2655,-0.2623,-0.2511,-0.2559,-0.2434,-0.2404,-0.2265,-0.2244,-0.2526,-0.2526,-0.2532,-0.2533,-0.2534,-0.2534,0,-0.2183,-0.2252,-0.229,-0.2383,-0.2407,-0.2427,-0.2507,-0.2532,-0.2596,-0.2609,-0.2619,-0.2651,-0.259,-0.2569,-0.2514,-0.2475,-0.2403,-0.2343,-0.2168,-0.2118,-0.2273,-0.2276,-0.2188,-0.2184,-0.218,-0.2177,-0.2175,0,-0.2144,-0.2158,-0.2243,-0.2262,-0.2297,-0.2347,-0.238,-0.248,-0.2507,-0.2566,-0.2559,-0.2526,-0.2456,-0.2345,-0.2259,-0.2154,-0.2254,-0.1962,-0.1962,-0.2258,-0.2238,-0.2247,-0.2255,-0.174,-0.1734,-0.173,-0.1726,0,-0.2046,-0.2076,-0.2106,-0.2148,-0.2186,-0.2227,-0.2285,-0.2299,-0.2405,-0.2417,-0.2395,-0.2345,-0.2228,-0.2035,-0.1922,-0.1851,-0.1977,-0.186,-0.2201,-0.1864,-0.1831,-0.1814,-0.1837,-0.1683,-0.1688,-0.1691,-0.1693,-0.1695,-0.1944,-0.1938,-0.1979,-0.2,-0.2047,-0.2067,-0.2044,-0.2127,-0.2131,-0.2125,-0.2167,-0.2026,-0.1978,-0.1678,-0.1583,-0.1512,-0.1643,-0.1601,-0.1618,-0.1639,-0.1612,-0.1576,-0.1373,-0.1375,-0.1377,-0.1379,-0.1381,0,-0.1803,-0.1812,-0.183,-0.1844,-0.1822,-0.1908,-0.1942,-0.1898,-0.185,-0.19,-0.1846,-0.1558,-0.1409,-0.1362,-0.1178,-0.1155,-0.1164,-0.1121,-0.1145,-0.1186,-0.1222,-0.1177,-0.0821,-0.082,-0.0819,-0.0817,0,0,-0.173,-0.1687,-0.1698,-0.1601,-0.1609,-0.1523,-0.1504,-0.149,-0.1494,-0.1417,-0.1343,-0.1393,-0.1346,-0.1098,-0.1035,-0.0913,-0.1055,-0.0865,-0.131,-0.1381,-0.1417,-0.1484,-0.1457,0,0,0,0,0]},{"header":{"parameterUnit":"m.s-1","parameterCategory":2,"la1":30.2991,"la2":30.254,"lo1":-89.0895,"lo2":-89.0444,"dy":0.0017,"dx":0.0017,"nx":28,"ny":28,"refTime":"2024-05-09T03:00:00:Z","depth":"2","parameterNumber":3,"parameterNumberName":"V-component_of_CURRENTS"},"data":[0,0,0,0,0,0,0,0,0,0,0,0,0,0,0,0,0,0,0,0,0,0,0,0,0,0,0,0,0,0,0,0,0,0,0,0,0,0,0,0,0,0,0,0,0,0,0,0,0,0,0,0,0,0,0,0,0,0,-0.0216,-0.0215,0,-0.0131,-0.0129,-0.0128,-0.0066,-0.0066,-0.0065,-0.0065,0.0067,0.007,0.0073,0,0,0,0,0,0,0,0,0,0,0,0,0,-0.0275,-0.0275,-0.0216,-0.0215,-0.0214,-0.0131,-0.0129,-0.0128,-0.0066,-0.0066,-0.0065,-0.0065,0.0066,0.007,0.0074,0,0,0,0,0,0,0,0,0,0,0,0,0,-0.0225,-0.0275,-0.0216,-0.0174,-0.0169,-0.0131,-0.0129,-0.0128,-0.0066,-0.0066,-0.0065,-0.0064,0.0065,0.0069,0.0074,0.009,0,0,0.0088,0.009,0,0,0,0,0,0,0,0,-0.0228,-0.0223,-0.0181,-0.0177,-0.0171,-0.0109,-0.0102,-0.0053,-0.0066,-0.0104,-0.0065,-0.0064,0.0011,0.002,0.0036,0.0096,0.0102,0.0089,0.0092,0.0094,0.0095,0,0,0,0,0,0,0,-0.0232,-0.0226,-0.0181,-0.018,-0.0174,-0.0142,-0.0135,-0.0092,-0.0049,-0.0101,-0.0096,-0.0089,0.0015,0.0031,0.004,0.0104,0.0089,0.0093,0.0096,0.0097,0.0212,0.0212,0,0,0,0,0,0,-0.0248,-0.0229,-0.0184,-0.0179,-0.02,-0.0142,-0.0133,-0.0129,-0.0051,-0.0039,-0.0089,-0.0086,0.0023,0.0034,0.0045,0.0075,0.0094,0.0098,0.0101,0.0212,0.0212,0.0213,0,0,0,0,0,0,-0.0249,-0.0244,-0.0187,-0.0203,-0.0193,-0.0142,-0.0137,-0.0128,-0.011,-0.0043,-0.003,-0.0082,0.0024,0.0038,0.008,0.0081,0.01,0.0104,0.0212,0.0212,0.0212,0.0133,0,0,0,0,0,0,-0.0251,-0.0246,-0.025,-0.0204,-0.0193,-0.0172,-0.0138,-0.0126,-0.0107,-0.0102,-0.0032,-0.0019,0.0025,0.0073,0.0085,0.0088,0.0108,0.0211,0.0212,0.0212,0.0135,0.013,0.0126,0,0,0,0,0,-0.0254,-0.0265,-0.0251,-0.0245,-0.02,-0.0173,-0.0164,-0.0125,-0.0108,-0.0106,-0.0057,-0.0021,0.0085,0.0076,0.009,0.0095,0.0211,0.0212,0.0212,0.0137,0.0131,0.0126,0,0,0,0,0,0,-0.0295,-0.0258,-0.0242,-0.0242,-0.0213,-0.0163,-0.0159,-0.0132,-0.0092,-0.0086,-0.0022,-0.0006,0.003,0.0075,0.0064,0.0131,0.0155,0.0159,0.0093,0.0089,0.0084,0.0072,0.0112,0,0,0,0,0,-0.0307,-0.0305,-0.0264,-0.0265,-0.0254,-0.0208,-0.0193,-0.0167,-0.0125,-0.0107,-0.0059,-0.0003,0.0043,0.0074,0.0118,0.0154,0.02,0.0169,0.0164,0.016,0.016,0.0226,0.0227,0.0214,0.0214,0.0214,0,0,-0.0324,-0.0304,-0.0302,-0.0274,-0.0248,-0.0239,-0.0197,-0.0181,-0.0168,-0.0099,-0.007,-0.0023,0.0047,0.0085,0.0107,0.0124,0.0187,0.0161,0.0156,0.0159,0.0227,0.0228,0.0229,0.0215,0.0215,0.0215,0,0,-0.036,-0.034,-0.035,-0.0331,-0.0301,-0.0268,-0.0268,-0.0222,-0.0195,-0.0163,-0.011,-0.0062,0.0006,0.006,0.0096,0.0096,0.0155,0.0111,0.0087,0.0149,0.0151,0.0153,0.0205,0.0212,0.0116,0.0116,0.0116,0,-0.0383,-0.0388,-0.035,-0.0355,-0.0346,-0.0287,-0.0296,-0.0259,-0.0204,-0.018,-0.0164,-0.0056,-0.0003,0.0058,0.0058,0.0086,0.0127,0.0096,0.0142,0.0145,0.0148,0.0202,0.0211,0.0113,0.0113,0.0113,0.0114,0,-0.0425,-0.0427,-0.0434,-0.0418,-0.0402,-0.04,-0.0349,-0.0323,-0.0285,-0.0241,-0.0183,-0.0109,-0.004,-0.0016,0.0022,0.0074,0.0096,0.012,0.0149,0.0144,0.0202,0.0212,0.0107,0.0109,0.011,0.0111,0,0,-0.0479,-0.0466,-0.0468,-0.0475,-0.0437,-0.043,-0.0404,-0.0359,-0.0335,-0.0275,-0.0237,-0.0155,-0.0109,-0.0064,-0.0005,0.0051,0.0104,0.0089,0.0094,0.0129,0.0237,0.0266,0.0281,0.0133,0.0135,0.0136,0.0264,0,-0.0523,-0.0554,-0.0528,-0.0549,-0.056,-0.0502,-0.0485,-0.0435,-0.0372,-0.0319,-0.0228,-0.0175,-0.0126,-0.0096,-0.0031,0.0075,0.013,0.0067,0.0247,0.0252,0.027,0.0294,0.0268,0.0381,0.0275,0.0276,0.0278,0,-0.0572,-0.0586,-0.0621,-0.0618,-0.0617,-0.0614,-0.0568,-0.054,-0.0441,-0.0393,-0.031,-0.0238,-0.0138,-0.0106,0.0073,0.0029,0.0122,0.02,0.0208,0.0272,0.0302,0.0373,0.0405,0.0296,0.0295,0.0293,0.0292,0,-0.0636,-0.065,-0.0681,-0.0682,-0.0665,-0.0664,-0.0642,-0.0564,-0.0535,-0.0432,-0.0395,-0.0268,-0.0197,-0.0066,0.0099,0.0087,0.0293,0.0302,0.0415,0.0418,0.0452,0.0456,0.0418,0.0418,0.0417,0.0417,0.0417,0,-0.0696,-0.072,-0.0715,-0.0736,-0.0769,-0.0728,-0.0726,-0.0679,-0.0599,-0.0552,-0.0438,-0.0365,-0.0184,-0.0042,0.0095,0.0298,0.0298,0.042,0.0459,0.0423,0.0422,0.0393,0.0389,0.0422,0.0421,0.042,0.0419,0,-0.0761,-0.0757,-0.0797,-0.0799,-0.0803,-0.0824,-0.0797,-0.0783,-0.0697,-0.0627,-0.0601,-0.0427,-0.0232,-0.0049,0.0182,0.0298,0.0479,0.0544,0.0484,0.0514,0.0558,0.0548,0.0684,0.0686,0.0688,0.069,0.0691,0,-0.0798,-0.0824,-0.0856,-0.0888,-0.0892,-0.0907,-0.0915,-0.0844,-0.0808,-0.065,-0.0616,-0.0426,-0.0255,0.009,0.0317,0.0564,0.0548,0.0664,0.0638,0.0564,0.0589,0.0576,0.0563,0.0652,0.0653,0.0653,0.0654,0,-0.0864,-0.0871,-0.0905,-0.0974,-0.1001,-0.1022,-0.1011,-0.0993,-0.0879,-0.0782,-0.0603,-0.0454,-0.0121,0.0169,0.0463,0.0592,0.0621,0.0687,0.0652,0.058,0.0542,0.0563,0.0551,0.066,0.066,0.0659,0.0659,0.0659,-0.0905,-0.0949,-0.0994,-0.1054,-0.1093,-0.111,-0.1114,-0.1049,-0.0963,-0.0781,-0.0613,-0.0346,-0.0085,0.0357,0.0566,0.0732,0.0725,0.0759,0.0753,0.0747,0.0713,0.068,0.0817,0.0817,0.0817,0.0818,0.0818,0,-0.0955,-0.1,-0.107,-0.1133,-0.1178,-0.1178,-0.116,-0.1124,-0.0999,-0.0769,-0.0556,-0.0216,0.0112,0.0364,0.0657,0.0833,0.0799,0.0833,0.0764,0.0757,0.0751,0.0713,0.0819,0.082,0.082,0.0821,0,0,-0.0982,-0.1059,-0.1095,-0.1185,-0.1223,-0.1243,-0.1224,-0.1136,-0.0976,-0.072,-0.0481,-0.0208,0.0132,0.0339,0.0556,0.0703,0.0673,0.0697,0.0678,0.0563,0.0555,0.0691,0.0623,0,0,0,0,0]}],[{"header":{"parameterUnit":"m.s-1","parameterCategory":2,"la1":30.2991,"la2":30.254,"lo1":-89.0895,"lo2":-89.0444,"dy":0.0017,"dx":0.0017,"nx":28,"ny":28,"refTime":"2024-05-09T03:00:00:Z","depth":"4","parameterNumber":2,"parameterNumberName":"U-component_of_CURRENTS"},"data":[0,0,0,0,0,0,0,0,0,0,0,0,0,0,0,0,0,0,0,0,0,0,0,0,0,0,0,0,0,0,0,0,0,0,0,0,0,0,0,0,0,0,0,0,0,0,0,0,0,0,0,0,0,0,0,0,0,0,-0.1736,-0.1737,0,-0.1829,-0.183,-0.183,-0.1878,-0.1878,-0.1879,-0.1879,-0.1951,-0.1953,-0.1954,0,0,0,0,0,0,0,0,0,0,0,0,0,-0.1584,-0.1587,-0.1736,-0.1737,-0.1739,-0.1828,-0.183,-0.1831,-0.1878,-0.1878,-0.1879,-0.1879,-0.195,-0.1952,-0.1954,0,0,0,0,0,0,0,0,0,0,0,0,0,-0.1659,-0.1588,-0.1736,-0.1775,-0.1779,-0.1828,-0.183,-0.1831,-0.1878,-0.1878,-0.1879,-0.1879,-0.195,-0.1952,-0.1955,-0.1963,0,0,-0.1962,-0.1963,0,0,0,0,0,0,0,0,-0.1655,-0.1664,-0.1768,-0.1772,-0.1777,-0.1844,-0.1803,-0.1875,-0.1878,-0.1838,-0.1879,-0.1879,-0.1914,-0.192,-0.1934,-0.1966,-0.1969,-0.1963,-0.1964,-0.1965,-0.1966,0,0,0,0,0,0,0,-0.165,-0.166,-0.1771,-0.1769,-0.1775,-0.1782,-0.1793,-0.1816,-0.1871,-0.1842,-0.1846,-0.186,-0.1917,-0.1931,-0.1936,-0.1971,-0.1963,-0.1965,-0.1966,-0.1967,-0.2076,-0.2077,0,0,0,0,0,0,-0.1643,-0.1656,-0.1768,-0.1774,-0.1718,-0.1785,-0.1797,-0.1821,-0.1872,-0.1881,-0.1859,-0.1862,-0.1927,-0.1933,-0.1938,-0.2012,-0.1965,-0.1968,-0.1969,-0.2075,-0.2076,-0.2078,0,0,0,0,0,0,-0.164,-0.1653,-0.1764,-0.1718,-0.1733,-0.1787,-0.1813,-0.1822,-0.1868,-0.1885,-0.1893,-0.1899,-0.1927,-0.1935,-0.1987,-0.2012,-0.1969,-0.1971,-0.2073,-0.2075,-0.2077,-0.2119,0,0,0,0,0,0,-0.1635,-0.1651,-0.1679,-0.1718,-0.1735,-0.1811,-0.1814,-0.1824,-0.1874,-0.1879,-0.1922,-0.1927,-0.1928,-0.1983,-0.1989,-0.2015,-0.1973,-0.2071,-0.2074,-0.2076,-0.2116,-0.2122,-0.2127,0,0,0,0,0,-0.1629,-0.166,-0.168,-0.1694,-0.1768,-0.1812,-0.1822,-0.1859,-0.1876,-0.1901,-0.1933,-0.1927,-0.2003,-0.1987,-0.1993,-0.202,-0.207,-0.2073,-0.2076,-0.2113,-0.2121,-0.2127,0,0,0,0,0,0,-0.1607,-0.167,-0.1692,-0.1741,-0.1783,-0.1821,-0.1853,-0.1878,-0.1924,-0.1938,-0.195,-0.1958,-0.2011,-0.2013,-0.1994,-0.2059,-0.2034,-0.2038,-0.206,-0.2067,-0.2073,-0.2071,-0.1975,0,0,0,0,0,-0.1616,-0.166,-0.171,-0.1752,-0.1776,-0.1822,-0.1851,-0.1878,-0.1917,-0.194,-0.197,-0.2,-0.2025,-0.2045,-0.2068,-0.2108,-0.2086,-0.2128,-0.2134,-0.2139,-0.2143,-0.2136,-0.2141,-0.2088,-0.2088,-0.2088,0,0,-0.1619,-0.1659,-0.1686,-0.1751,-0.1788,-0.1832,-0.1841,-0.1895,-0.1935,-0.1939,-0.201,-0.2028,-0.2042,-0.2085,-0.2108,-0.2093,-0.2141,-0.2143,-0.2147,-0.2149,-0.214,-0.2144,-0.2149,-0.209,-0.209,-0.2089,0,0,-0.1637,-0.1685,-0.1726,-0.1766,-0.1831,-0.1859,-0.1881,-0.1941,-0.1975,-0.2037,-0.2047,-0.2083,-0.2132,-0.2142,-0.2151,-0.2205,-0.2174,-0.2215,-0.2243,-0.2236,-0.224,-0.2243,-0.2208,-0.2208,-0.2215,-0.2215,-0.2215,0,-0.1639,-0.1699,-0.1743,-0.179,-0.1827,-0.1874,-0.192,-0.1961,-0.2032,-0.2056,-0.2068,-0.2136,-0.2155,-0.2188,-0.2212,-0.2218,-0.2199,-0.2214,-0.2242,-0.2245,-0.2248,-0.2211,-0.221,-0.2218,-0.2217,-0.2217,-0.2217,0,-0.168,-0.1739,-0.1765,-0.1842,-0.1885,-0.1934,-0.1991,-0.2042,-0.2087,-0.2118,-0.2175,-0.2199,-0.2232,-0.2246,-0.2251,-0.2281,-0.2255,-0.225,-0.222,-0.2255,-0.2215,-0.2213,-0.2221,-0.222,-0.2219,-0.2219,0,0,-0.1651,-0.1772,-0.1785,-0.183,-0.1919,-0.1955,-0.2026,-0.209,-0.213,-0.219,-0.2231,-0.2282,-0.229,-0.2301,-0.2306,-0.2309,-0.2313,-0.2295,-0.2294,-0.2252,-0.2277,-0.2118,-0.2101,-0.2312,-0.2313,-0.2313,-0.2236,0,-0.1671,-0.1765,-0.1821,-0.1906,-0.1955,-0.2018,-0.2076,-0.2139,-0.2186,-0.2237,-0.2262,-0.2303,-0.231,-0.2327,-0.2334,-0.2328,-0.2313,-0.2333,-0.2257,-0.2254,-0.2102,-0.2095,-0.2314,-0.2234,-0.2234,-0.2233,-0.2233,0,-0.1685,-0.1749,-0.184,-0.1942,-0.1969,-0.2026,-0.2112,-0.2169,-0.2239,-0.2274,-0.2311,-0.2329,-0.2359,-0.2353,-0.2342,-0.2355,-0.2323,-0.2303,-0.2299,-0.2136,-0.2092,-0.2196,-0.2229,-0.223,-0.223,-0.223,-0.223,0,-0.1633,-0.1754,-0.1829,-0.1867,-0.199,-0.204,-0.2102,-0.2181,-0.2219,-0.2293,-0.2313,-0.2351,-0.2361,-0.2351,-0.2322,-0.2337,-0.2282,-0.2291,-0.2107,-0.2094,-0.2244,-0.2241,-0.2262,-0.2262,-0.2262,-0.2262,-0.2262,0,-0.1614,-0.1674,-0.1818,-0.1857,-0.193,-0.2025,-0.2093,-0.2156,-0.2231,-0.2252,-0.2325,-0.2317,-0.2363,-0.2337,-0.2317,-0.219,-0.227,-0.2098,-0.2061,-0.2261,-0.2262,-0.2241,-0.2239,-0.2259,-0.226,-0.2261,-0.2261,0,-0.1539,-0.1642,-0.1726,-0.1867,-0.191,-0.196,-0.2077,-0.2114,-0.2199,-0.2225,-0.2247,-0.2292,-0.224,-0.2243,-0.2205,-0.2145,-0.2068,-0.1999,-0.219,-0.2169,-0.1888,-0.189,-0.1786,-0.1779,-0.1774,-0.177,-0.1766,0,-0.1505,-0.155,-0.1706,-0.1749,-0.1818,-0.1909,-0.1961,-0.208,-0.2105,-0.2175,-0.2162,-0.2149,-0.2153,-0.1957,-0.1995,-0.1908,-0.1888,-0.1851,-0.1892,-0.1862,-0.1839,-0.1849,-0.1858,-0.1757,-0.1756,-0.1755,-0.1753,0,-0.1425,-0.1499,-0.1567,-0.1657,-0.1731,-0.1794,-0.1875,-0.1873,-0.1982,-0.2085,-0.2004,-0.1954,-0.1875,-0.1826,-0.1757,-0.1711,-0.1889,-0.1795,-0.1807,-0.1845,-0.1827,-0.1811,-0.1826,-0.1735,-0.1737,-0.1739,-0.174,0,-0.1353,-0.1378,-0.1475,-0.1532,-0.1619,-0.1633,-0.1701,-0.1718,-0.1753,-0.1842,-0.1804,-0.1791,-0.184,-0.1718,-0.1666,-0.1594,-0.1577,-0.1557,-0.1581,-0.1602,-0.1579,-0.1531,-0.1299,0,0,0,0,0,-0.1264,-0.1283,-0.1336,-0.1387,-0.1465,-0.1503,-0.1617,-0.1687,-0.1791,-0.1685,-0.1737,-0.1654,-0.1552,-0.1554,-0.1434,-0.1576,-0.1586,-0.1434,-0.1579,-0.1632,-0.1653,-0.1643,0,0,0,0,0,0,-0.1204,-0.1262,-0.1286,-0.1243,-0.124,-0.1299,-0.136,-0.1442,-0.1395,-0.1506,-0.1447,-0.1547,-0.1459,-0.1559,-0.1386,-0.1388,-0.1448,-0.145,-0.1446,-0.162,-0.1639,-0.1657,-0.1654,0,0,0,0,0]},{"header":{"parameterUnit":"m.s-1","parameterCategory":2,"la1":30.2991,"la2":30.254,"lo1":-89.0895,"lo2":-89.0444,"dy":0.0017,"dx":0.0017,"nx":28,"ny":28,"refTime":"2024-05-09T03:00:00:Z","depth":"4","parameterNumber":3,"parameterNumberName":"V-component_of_CURRENTS"},"data":[0,0,0,0,0,0,0,0,0,0,0,0,0,0,0,0,0,0,0,0,0,0,0,0,0,0,0,0,0,0,0,0,0,0,0,0,0,0,0,0,0,0,0,0,0,0,0,0,0,0,0,0,0,0,0,0,0,0,-0.0164,-0.0163,0,-0.0103,-0.0102,-0.0102,-0.0057,-0.0056,-0.0056,-0.0056,0.0052,0.0055,0.0057,0,0,0,0,0,0,0,0,0,0,0,0,0,-0.0199,-0.0199,-0.0164,-0.0163,-0.0163,-0.0103,-0.0102,-0.0101,-0.0057,-0.0056,-0.0056,-0.0056,0.0051,0.0054,0.0058,0,0,0,0,0,0,0,0,0,0,0,0,0,-0.0165,-0.0199,-0.0164,-0.0134,-0.0131,-0.0104,-0.0102,-0.0101,-0.0057,-0.0056,-0.0056,-0.0056,0.005,0.0054,0.0058,0.0074,0,0,0.007,0.0072,0,0,0,0,0,0,0,0,-0.0167,-0.0164,-0.0139,-0.0136,-0.0133,-0.0088,-0.0075,-0.0041,-0.0057,-0.0084,-0.0056,-0.0055,0.0009,0.0016,0.0028,0.0079,0.0084,0.007,0.0073,0.0074,0.0076,0,0,0,0,0,0,0,-0.017,-0.0166,-0.0139,-0.0139,-0.0135,-0.011,-0.0104,-0.0068,-0.0039,-0.0081,-0.0078,-0.0074,0.0011,0.0024,0.003,0.0085,0.007,0.0074,0.0076,0.0078,0.0181,0.0181,0,0,0,0,0,0,-0.0182,-0.0168,-0.0141,-0.0137,-0.015,-0.011,-0.0104,-0.0102,-0.004,-0.0031,-0.0074,-0.0072,0.0017,0.0026,0.0035,0.0064,0.0074,0.0078,0.008,0.018,0.0181,0.0181,0,0,0,0,0,0,-0.0183,-0.018,-0.0143,-0.0152,-0.0146,-0.011,-0.0108,-0.0101,-0.0089,-0.0035,-0.0025,-0.007,0.0017,0.0029,0.0065,0.0068,0.008,0.0083,0.018,0.0181,0.0181,0.0119,0,0,0,0,0,0,-0.0185,-0.0181,-0.0186,-0.0153,-0.0146,-0.0132,-0.0108,-0.01,-0.0087,-0.0084,-0.0028,-0.0018,0.0019,0.0058,0.0068,0.0074,0.0087,0.018,0.018,0.0181,0.012,0.0117,0.0114,0,0,0,0,0,-0.0186,-0.0196,-0.0187,-0.0184,-0.0153,-0.0133,-0.0127,-0.0099,-0.0088,-0.0086,-0.0047,-0.0019,0.0071,0.0061,0.0073,0.008,0.0179,0.018,0.0181,0.0121,0.0118,0.0114,0,0,0,0,0,0,-0.0215,-0.0191,-0.0181,-0.0183,-0.0163,-0.0126,-0.0124,-0.0104,-0.0073,-0.007,-0.0018,-0.0005,0.0026,0.0063,0.0052,0.0114,0.0131,0.0135,0.0082,0.0079,0.0076,0.0063,0.009,0,0,0,0,0,-0.0224,-0.0226,-0.0197,-0.02,-0.0193,-0.016,-0.0149,-0.0131,-0.0099,-0.0085,-0.0046,-0.0,0.0039,0.0065,0.0102,0.0135,0.017,0.015,0.0147,0.0144,0.0143,0.0196,0.0197,0.0184,0.0184,0.0184,0,0,-0.0237,-0.0225,-0.0226,-0.0207,-0.0189,-0.0182,-0.0152,-0.0142,-0.0131,-0.0077,-0.0053,-0.0015,0.0044,0.0078,0.0097,0.011,0.0166,0.0145,0.0142,0.0143,0.0197,0.0198,0.0199,0.0185,0.0185,0.0185,0,0,-0.0264,-0.0253,-0.0262,-0.0249,-0.0228,-0.0204,-0.0204,-0.0171,-0.0151,-0.0125,-0.0083,-0.0043,0.0015,0.0061,0.0092,0.0097,0.0142,0.0111,0.0093,0.0143,0.0145,0.0146,0.0185,0.019,0.0117,0.0117,0.0117,0,-0.0282,-0.0287,-0.0262,-0.0266,-0.026,-0.0218,-0.0224,-0.0196,-0.0154,-0.0137,-0.0125,-0.0035,0.001,0.0064,0.0066,0.009,0.012,0.0097,0.0138,0.014,0.0143,0.0182,0.0189,0.0114,0.0114,0.0114,0.0115,0,-0.0311,-0.0315,-0.0321,-0.031,-0.03,-0.0299,-0.026,-0.0242,-0.0215,-0.0181,-0.0133,-0.0072,-0.0015,0.0007,0.0039,0.0084,0.0098,0.0119,0.0141,0.014,0.0182,0.019,0.011,0.0111,0.0112,0.0112,0,0,-0.0349,-0.0343,-0.0346,-0.0352,-0.0325,-0.0321,-0.03,-0.0267,-0.0251,-0.0202,-0.0174,-0.0102,-0.0067,-0.0029,0.002,0.0068,0.0109,0.0096,0.01,0.0123,0.0211,0.0191,0.0199,0.0133,0.0134,0.0135,0.0229,0,-0.038,-0.0405,-0.0387,-0.0404,-0.0412,-0.0372,-0.036,-0.0323,-0.0277,-0.0237,-0.0163,-0.012,-0.0079,-0.0055,-0.0,0.0084,0.0129,0.0081,0.0219,0.0223,0.0197,0.0207,0.0139,0.0236,0.0238,0.0239,0.024,0,-0.0413,-0.0425,-0.0454,-0.0455,-0.0456,-0.0457,-0.0427,-0.0406,-0.0332,-0.0296,-0.023,-0.0173,-0.0091,-0.0064,0.008,0.0046,0.0119,0.0182,0.0187,0.0197,0.0219,0.0242,0.0256,0.0254,0.0253,0.0252,0.0251,0,-0.0456,-0.047,-0.0498,-0.05,-0.0492,-0.0496,-0.0484,-0.0428,-0.0405,-0.0329,-0.03,-0.0198,-0.0141,-0.0037,0.0096,0.0088,0.025,0.0259,0.0311,0.031,0.0326,0.0324,0.0351,0.0351,0.0351,0.0351,0.035,0,-0.0492,-0.0516,-0.0525,-0.0542,-0.0575,-0.0547,-0.0553,-0.052,-0.0461,-0.0426,-0.0336,-0.0278,-0.0133,-0.002,0.0089,0.0228,0.0251,0.0308,0.0336,0.0297,0.0291,0.0332,0.0328,0.0354,0.0353,0.0353,0.0352,0,-0.0531,-0.0538,-0.0575,-0.0589,-0.0599,-0.062,-0.0611,-0.06,-0.0539,-0.0486,-0.0467,-0.0329,-0.0182,-0.0037,0.0146,0.0219,0.0351,0.0393,0.0338,0.036,0.0377,0.0369,0.0452,0.0452,0.0452,0.0452,0.0452,0,-0.0551,-0.0575,-0.0621,-0.0654,-0.0666,-0.0688,-0.0699,-0.065,-0.0622,-0.0506,-0.0478,-0.0337,-0.0234,0.0018,0.016,0.0356,0.0379,0.0434,0.0403,0.037,0.0389,0.0381,0.0373,0.0453,0.0453,0.0453,0.0453,0,-0.0588,-0.061,-0.0643,-0.0715,-0.0748,-0.077,-0.0771,-0.0753,-0.0671,-0.0619,-0.0468,-0.0329,-0.0163,0.0021,0.017,0.0312,0.0389,0.0435,0.0436,0.0408,0.0372,0.0388,0.0381,0.0453,0.0453,0.0453,0.0453,0,-0.0615,-0.0653,-0.0706,-0.0763,-0.0816,-0.0833,-0.0824,-0.0765,-0.072,-0.0573,-0.0521,-0.0324,-0.0201,-0.0,0.0146,0.0272,0.0294,0.0319,0.0326,0.0327,0.0255,0.0189,0.024,0,0,0,0,0,-0.0632,-0.0682,-0.0748,-0.0809,-0.0862,-0.088,-0.0864,-0.0831,-0.0745,-0.0643,-0.0573,-0.0409,-0.0168,-0.0053,0.0069,0.0114,0.0286,0.0257,0.031,0.0455,0.0455,0.0389,0,0,0,0,0,0,-0.0644,-0.0717,-0.0753,-0.0834,-0.0876,-0.0916,-0.09,-0.084,-0.0762,-0.0657,-0.0521,-0.0408,-0.0176,-0.0244,0.0061,0.0103,0.0146,0.0384,0.0386,0.0456,0.0455,0.0455,0.0387,0,0,0,0,0]}]]